Retour au catalogue

EUTE 36D

ActifCommunicationsGEO
NORAD 59346·PAYLOAD·🇪🇺 EU

Lancé Mar 30, 2024 depuis Cape Canaveral Space Force Station

Loading…

TLE

FraisSource: Space-Track

Époque: Sep 14, 2026, 13:58 UTC

1 59346U 24059A   26257.58220771  .00000148  00000-0  00000-0 0  9994
2 59346   0.0014 172.7074 0000192 245.1581 181.1614  1.00270725  9049

Suivez EUTE 36D en temps réel avec AllMySat

Download on the App Store